FW8499 Weather Reports


time (UTC)temp
C
wind
direction
speed
KPH
gust
KPH
rain 1hr
cm
rain 24hr
cm
rain mn
cm
humidity
%
barometer
mb
20260508071404 10 136 3.2 11.3 0.00 0.00 0.00 83 1017.2
20260508070904 10 162 3.2 11.3 0.00 0.00 0.00 83 1017.2
20260508070404 10 152 4.8 9.7 0.00 0.00 0.00 83 1017.1
20260508065904 10 145 4.8 8.0 0.00 0.00 0.00 84 1017.0
20260508064904 10 126 4.8 8.0 0.00 0.00 0.00 85 1017.1
20260508064404 10 161 3.2 8.0 0.00 0.00 0.00 85 1017.1
20260508063404 10 143 4.8 14.5 0.00 0.00 0.00 86 1017.0
20260508062903 10 140 6.4 14.5 0.00 0.00 0.00 86 1017.0
20260508062404 9 138 8.0 14.5 0.00 0.00 0.00 86 1016.8
20260508061904 9 128 3.2 11.3 0.00 0.00 0.00 86 1016.8
20260508061404 9 145 4.8 11.3 0.00 0.00 0.00 86 1016.8
20260508060904 9 135 3.2 8.0 0.00 0.00 0.00 86 1016.7
20260508060404 9 153 3.2 11.3 0.00 0.00 0.00 87 1016.7
20260508054905 9 126 3.2 4.8 0.00 0.00 0.00 88 1016.7
20260508054404 9 128 1.6 4.8 0.00 0.00 0.00 87 1016.7
20260508053904 8 134 3.2 4.8 0.00 0.00 0.00 88 1016.6
20260508052905 8 124 1.6 4.8 0.00 0.00 0.00 88 1016.7
20260508051903 8 127 3.2 4.8 0.00 0.00 0.00 88 1016.6
20260508051404 8 133 1.6 4.8 0.00 0.00 0.00 88 1016.5
20260508050904 8 120 3.2 4.8 0.00 0.00 0.00 88 1016.5
20260508050405 8 134 0.0 3.2 0.00 0.00 0.00 88 1016.5
20260508045904 8 123 1.6 3.2 0.00 0.00 0.00 87 1016.5
20260508045404 8 117 0.0 3.2 0.00 0.00 0.00 87 1016.5
20260508044904 8 117 0.0 1.6 0.00 0.00 0.00 87 1016.5
20260508044404 8 117 0.0 3.2 0.00 0.00 0.00 87 1016.4
20260508043905 8 114 0.0 3.2 0.00 0.00 0.00 87 1016.4
20260508043404 8 107 1.6 4.8 0.00 0.00 0.00 87 1016.4
20260508042904 8 110 0.0 4.8 0.00 0.00 0.00 87 1016.4
20260508041904 8 125 1.6 4.8 0.00 0.00 0.00 86 1016.4
20260508040904 8 134 0.0 1.6 0.00 0.00 0.00 86 1016.3
20260508035904 8 134 0.0 3.2 0.00 0.00 0.00 85 1016.3
20260508034904 9 134 0.0 1.6 0.00 0.00 0.00 86 1016.2
20260508034404 9 134 0.0 3.2 0.00 0.00 0.00 85 1016.3
20260508033904 9 134 0.0 3.2 0.00 0.00 0.00 85 1016.2
20260508033403 9 134 0.0 3.2 0.00 0.00 0.00 85 1016.2
20260508032904 9 134 0.0 1.6 0.00 0.00 0.00 85 1016.2
20260508032404 9 134 0.0 1.6 0.00 0.00 0.00 85 1016.3
20260508031404 9 109 0.0 3.2 0.00 0.00 0.00 85 1016.3
20260508030903 9 105 0.0 4.8 0.00 0.00 0.00 85 1016.2
20260508030404 9 133 1.6 4.8 0.00 0.00 0.00 85 1016.3
20260508025904 9 142 3.2 4.8 0.00 0.00 0.00 85 1016.3
20260508025404 9 162 1.6 4.8 0.00 0.00 0.00 84 1016.3
20260508024904 9 133 3.2 4.8 0.00 0.00 0.00 84 1016.3
20260508024404 9 135 1.6 4.8 0.00 0.00 0.00 84 1016.3
20260508023903 9 156 1.6 4.8 0.00 0.00 0.00 84 1016.4
20260508022905 9 140 1.6 4.8 0.00 0.00 0.00 84 1016.4
20260508021904 10 135 1.6 3.2 0.00 0.00 0.00 84 1016.4
20260508021404 10 145 1.6 3.2 0.00 0.00 0.00 84 1016.3
20260508020904 10 145 0.0 3.2 0.00 0.00 0.00 84 1016.3
20260508015904 10 144 0.0 3.2 0.00 0.00 0.00 83 1016.3
20260508015404 10 149 0.0 3.2 0.00 0.00 0.00 83 1016.3
20260508014904 10 171 1.6 4.8 0.00 0.00 0.00 83 1016.2
20260508014404 10 148 1.6 4.8 0.00 0.00 0.00 83 1016.2
20260508013903 10 116 1.6 4.8 0.00 0.00 0.00 83 1016.2
20260508013404 10 173 1.6 3.2 0.00 0.00 0.00 83 1016.2
20260508012904 10 142 1.6 4.8 0.00 0.00 0.00 83 1016.2
20260508012404 10 146 3.2 4.8 0.00 0.00 0.00 82 1016.2
20260508011904 10 150 3.2 4.8 0.00 0.00 0.00 82 1016.2
20260508011404 10 161 3.2 4.8 0.00 0.00 0.00 82 1016.2
20260508010904 10 145 1.6 4.8 0.00 0.00 0.00 82 1016.2
20260508010404 10 120 3.2 4.8 0.00 0.00 0.00 82 1016.2
20260508005904 10 130 1.6 4.8 0.00 0.00 0.00 82 1016.2
20260508005404 10 105 1.6 4.8 0.00 0.00 0.00 82 1016.2
20260508004903 10 115 1.6 4.8 0.00 0.00 0.00 82 1016.3
20260508004404 10 129 1.6 4.8 0.00 0.00 0.00 81 1016.2
20260508002404 10 193 0.0 4.8 0.00 0.00 0.00 81 1016.4
20260508001904 10 182 3.2 4.8 0.00 0.00 0.00 81 1016.4
20260508001404 10 125 3.2 4.8 0.00 0.00 0.00 80 1016.3
20260508000904 10 137 1.6 4.8 0.00 0.00 0.00 80 1016.4
20260508000405 10 129 1.6 4.8 0.00 0.00 0.00 80 1016.4
20260507235904 10 125 1.6 4.8 0.00 0.00 0.00 80 1016.5
20260507235404 10 135 3.2 4.8 0.00 0.00 0.00 80 1016.5
20260507234904 10 150 3.2 4.8 0.00 0.00 0.00 79 1016.6
20260507233903 10 148 4.8 4.8 0.00 0.00 0.00 79 1016.6
20260507233404 10 150 1.6 4.8 0.00 0.00 0.00 79 1016.6
20260507231904 10 128 3.2 8.0 0.00 0.00 0.00 78 1016.6
20260507231404 10 144 4.8 8.0 0.00 0.00 0.00 78 1016.6
20260507230904 10 156 3.2 8.0 0.00 0.00 0.00 78 1016.6
20260507230404 10 140 4.8 11.3 0.00 0.00 0.00 77 1016.6
20260507225904 10 149 6.4 11.3 0.00 0.00 0.00 77 1016.6
20260507225405 10 161 4.8 12.9 0.00 0.00 0.00 77 1016.6
20260507224904 10 146 4.8 12.9 0.00 0.00 0.00 76 1016.7
20260507224403 11 147 6.4 14.5 0.00 0.00 0.00 76 1016.8
20260507223404 11 131 4.8 11.3 0.00 0.00 0.00 76 1016.7
20260507222904 11 126 3.2 11.3 0.00 0.00 0.00 75 1016.8
20260507221904 11 138 4.8 14.5 0.00 0.00 0.00 75 1016.7
20260507221404 11 133 8.0 14.5 0.00 0.00 0.00 75 1016.7
20260507220904 11 130 4.8 14.5 0.00 0.00 0.00 74 1016.6
20260507220404 11 122 8.0 14.5 0.00 0.00 0.00 74 1016.7
20260507215911 11 119 4.8 14.5 0.00 0.00 0.00 74 1016.7
20260507215405 11 125 4.8 14.5 0.00 0.00 0.00 74 1016.8
20260507214904 11 143 6.4 12.9 0.00 0.00 0.00 74 1016.7
20260507214403 11 136 4.8 14.5 0.00 0.03 0.00 74 1016.7
20260507213904 11 141 6.4 14.5 0.00 0.03 0.00 74 1016.7
20260507212905 11 152 4.8 12.9 0.00 0.03 0.00 73 1016.7
20260507212403 11 174 4.8 12.9 0.00 0.03 0.00 73 1016.7
20260507211904 11 142 8.0 12.9 0.00 0.03 0.00 73 1016.7
20260507211403 11 135 4.8 14.5 0.00 0.03 0.00 73 1016.6
20260507210903 11 148 4.8 14.5 0.00 0.03 0.00 73 1016.6
20260507205904 11 127 4.8 14.5 0.00 0.03 0.00 72 1016.5
20260507205404 12 145 8.0 14.5 0.00 0.03 0.00 72 1016.5
20260507203904 12 137 6.4 14.5 0.00 0.03 0.00 71 1016.5
20260507203404 12 126 6.4 14.5 0.00 0.03 0.00 71 1016.4
20260507202904 12 130 6.4 14.5 0.00 0.03 0.00 70 1016.3
20260507202404 12 135 6.4 16.1 0.00 0.03 0.00 70 1016.3
20260507201904 12 137 8.0 19.3 0.00 0.03 0.00 70 1016.2
20260507201403 12 151 8.0 19.3 0.00 0.03 0.00 69 1016.1
20260507200904 12 161 4.8 19.3 0.00 0.03 0.00 69 1016.1
20260507200404 12 126 8.0 16.1 0.00 0.03 0.00 69 1016.0
20260507195905 12 125 11.3 16.1 0.00 0.03 0.00 68 1015.9
20260507194404 13 131 8.0 19.3 0.00 0.03 0.00 66 1015.8
20260507193903 13 154 8.0 16.1 0.00 0.03 0.00 65 1015.8
20260507193403 13 126 8.0 16.1 0.00 0.03 0.00 65 1015.7
20260507192904 13 131 6.4 14.5 0.00 0.03 0.00 64 1015.7
20260507192404 13 127 4.8 12.9 0.00 0.03 0.00 64 1015.7
20260507191903 13 120 6.4 12.9 0.00 0.03 0.00 64 1015.8
20260507190904 13 129 4.8 16.1 0.00 0.03 0.00 63 1015.6
20260507185905 13 130 8.0 16.1 0.00 0.03 0.00 63 1015.6
20260507185405 13 145 6.4 19.3 0.00 0.03 0.00 62 1015.6
20260507184905 13 131 6.4 19.3 0.00 0.03 0.00 62 1015.6
20260507183905 14 124 6.4 12.9 0.00 0.03 0.00 61 1015.4
20260507183405 14 123 4.8 14.5 0.00 0.03 0.00 60 1015.4
20260507182905 15 114 8.0 14.5 0.00 0.03 0.00 59 1015.4
20260507182406 15 127 4.8 14.5 0.00 0.03 0.00 58 1015.5
20260507181905 15 133 4.8 11.3 0.00 0.03 0.00 58 1015.4
20260507180905 15 133 4.8 12.9 0.00 0.03 0.00 55 1015.2
20260507180407 16 123 8.0 12.9 0.00 0.03 0.00 54 1015.2
20260507175905 16 120 8.0 12.9 0.00 0.03 0.00 52 1015.2
20260507175405 16 117 8.0 12.9 0.00 0.03 0.00 52 1015.1
20260507174905 16 124 4.8 12.9 0.00 0.03 0.00 51 1015.1
20260507174405 17 136 6.4 11.3 0.00 0.03 0.00 49 1015.1
20260507173905 17 150 3.2 16.1 0.00 0.03 0.00 48 1015.2
20260507173405 18 133 8.0 16.1 0.00 0.03 0.00 47 1015.3
20260507172905 18 125 8.0 16.1 0.00 0.03 0.00 46 1015.2
20260507172405 18 145 6.4 12.9 0.00 0.03 0.00 45 1015.2
20260507171905 18 136 4.8 14.5 0.00 0.03 0.00 46 1015.2
20260507171405 18 139 4.8 16.1 0.00 0.03 0.00 46 1015.1
20260507170905 18 163 8.0 16.1 0.00 0.03 0.00 45 1015.1
20260507170405 18 125 8.0 16.1 0.00 0.03 0.00 44 1015.1
20260507165905 18 118 8.0 16.1 0.00 0.03 0.00 46 1015.2
20260507164907 18 160 8.0 19.3 0.00 0.03 0.00 45 1015.2
20260507164404 18 121 4.8 19.3 0.00 0.03 0.00 47 1015.1
20260507163905 18 144 8.0 19.3 0.00 0.03 0.00 46 1015.2
20260507163405 18 129 8.0 19.3 0.00 0.03 0.00 46 1015.1
20260507162404 19 133 4.8 19.3 0.00 0.03 0.00 44 1015.2
20260507161905 19 143 9.7 20.9 0.00 0.03 0.00 43 1015.2
20260507161405 19 120 9.7 20.9 0.00 0.03 0.00 44 1015.2
20260507160405 18 146 3.2 19.3 0.00 0.03 0.00 44 1015.1
20260507155905 18 129 9.7 19.3 0.00 0.03 0.00 46 1015.2
20260507155405 18 130 9.7 19.3 0.00 0.03 0.00 46 1015.1
20260507154405 18 199 6.4 19.3 0.00 0.03 0.00 42 1015.1
20260507153905 18 128 8.0 19.3 0.00 0.03 0.00 42 1015.2
20260507153405 19 148 9.7 16.1 0.00 0.03 0.00 42 1015.3
20260507152905 18 129 4.8 14.5 0.00 0.03 0.00 44 1015.4
20260507152405 18 163 9.7 16.1 0.00 0.03 0.00 44 1015.5
20260507151405 19 124 8.0 16.1 0.00 0.03 0.00 45 1015.5
20260507150405 19 151 4.8 16.1 0.00 0.03 0.00 42 1015.6
20260507145905 19 114 8.0 16.1 0.00 0.03 0.00 42 1015.7
20260507145405 18 172 1.6 16.1 0.00 0.03 0.00 46 1015.7
20260507144906 18 167 4.8 19.3 0.00 0.03 0.00 43 1015.8
20260507144405 18 133 4.8 19.3 0.00 0.03 0.00 43 1015.8
20260507142904 18 142 8.0 16.1 0.00 0.03 0.00 44 1015.8
20260507142405 18 129 9.7 16.1 0.00 0.03 0.00 44 1015.8
20260507141905 17 47 4.8 19.3 0.00 0.03 0.00 47 1015.8
20260507141405 17 146 9.7 19.3 0.00 0.03 0.00 46 1015.9
20260507140904 16 176 3.2 14.5 0.00 0.03 0.00 48 1015.8
20260507140406 16 101 8.0 14.5 0.00 0.03 0.00 48 1015.9
20260507135905 15 132 1.6 12.9 0.00 0.03 0.00 52 1015.9
20260507135404 15 141 4.8 12.9 0.00 0.03 0.00 52 1015.9
20260507134405 15 129 4.8 14.5 0.00 0.03 0.00 50 1016.1
20260507133905 15 134 8.0 14.5 0.00 0.03 0.00 49 1016.1
20260507133404 16 128 4.8 16.1 0.00 0.03 0.00 49 1016.0
20260507132905 16 166 4.8 16.1 0.00 0.03 0.00 48 1016.1
20260507132405 16 173 6.4 14.5 0.00 0.03 0.00 47 1016.1
20260507131906 16 165 6.4 16.1 0.00 0.03 0.00 49 1016.0
20260507131405 16 64 4.8 16.1 0.00 0.03 0.00 52 1016.0
20260507130905 16 140 6.4 19.3 0.00 0.03 0.00 51 1016.0
20260507125904 15 111 6.4 19.3 0.00 0.03 0.00 53 1016.1
20260507125405 15 135 3.2 14.5 0.00 0.03 0.00 55 1016.0
20260507124905 14 153 1.6 11.3 0.00 0.03 0.00 58 1016.0
20260507124406 13 160 3.2 11.3 0.00 0.03 0.00 56 1016.0
20260507123905 13 156 3.2 11.3 0.00 0.03 0.00 58 1016.0
20260507123405 13 135 3.2 11.3 0.00 0.03 0.00 57 1016.1
20260507122904 13 183 4.8 11.3 0.00 0.03 0.00 56 1016.2
20260507121904 14 150 4.8 12.9 0.00 0.03 0.00 56 1016.2
20260507121404 15 150 6.4 12.9 0.00 0.03 0.00 55 1016.3
20260507120905 15 132 4.8 12.9 0.00 0.03 0.00 54 1016.3
20260507120404 15 141 4.8 16.1 0.00 0.03 0.00 54 1016.3
20260507115905 16 129 4.8 16.1 0.00 0.03 0.00 54 1016.4
20260507115404 16 118 9.7 19.3 0.00 0.03 0.00 53 1016.4
20260507113905 16 125 8.0 19.3 0.00 0.03 0.00 51 1016.4
20260507113405 16 134 9.7 19.3 0.00 0.03 0.00 51 1016.4
20260507112405 16 96 8.0 19.3 0.00 0.03 0.00 54 1016.3
20260507111905 16 156 8.0 16.1 0.00 0.03 0.00 52 1016.4
20260507111405 15 193 4.8 12.9 0.00 0.03 0.00 56 1016.3
20260507110904 15 112 3.2 8.0 0.00 0.03 0.00 55 1016.4
20260507110405 15 186 3.2 9.7 0.00 0.03 0.00 54 1016.4
20260507105905 15 196 3.2 9.7 0.00 0.03 0.00 55 1016.4
20260507104904 15 183 4.8 16.1 0.00 0.03 0.00 53 1016.5
20260507104405 15 113 3.2 9.7 0.00 0.03 0.00 56 1016.5
20260507103905 15 145 3.2 12.9 0.00 0.03 0.00 55 1016.6
20260507103404 15 143 4.8 16.1 0.00 0.03 0.00 58 1016.7
20260507102905 14 146 4.8 16.1 0.00 0.03 0.00 59 1016.8
20260507102405 14 137 4.8 14.5 0.00 0.03 0.00 60 1016.7
20260507101905 14 155 6.4 14.5 0.00 0.03 0.00 62 1016.7
20260507101404 13 168 6.4 16.1 0.00 0.03 0.00 62 1016.7
20260507100905 13 145 8.0 16.1 0.00 0.03 0.00 64 1016.7
20260507100405 13 190 1.6 14.5 0.00 0.03 0.00 66 1016.6
20260507095904 13 96 8.0 14.5 0.00 0.03 0.00 65 1016.6
20260507094905 13 149 8.0 14.5 0.00 0.03 0.00 67 1016.9
20260507092904 12 145 3.2 19.3 0.00 0.03 0.00 70 1016.9
20260507092405 12 138 8.0 19.3 0.00 0.03 0.00 71 1016.9
20260507091905 11 170 4.8 12.9 0.00 0.03 0.00 73 1017.0
20260507090905 11 205 3.2 8.0 0.00 0.03 0.00 75 1016.9
20260507090404 11 132 1.6 9.7 0.00 0.03 0.00 76 1017.0
20260507085404 11 172 3.2 8.0 0.00 0.03 0.00 75 1017.0
20260507084905 11 171 3.2 11.3 0.00 0.03 0.00 75 1016.9
20260507084405 11 136 4.8 11.3 0.00 0.03 0.00 75 1016.9
20260507083904 11 123 4.8 11.3 0.00 0.03 0.00 77 1017.0
20260507082905 11 130 6.4 12.9 0.00 0.03 0.00 76 1017.0
20260507082404 11 114 1.6 14.5 0.00 0.03 0.00 78 1017.0
20260507081905 11 144 6.4 14.5 0.00 0.03 0.00 78 1017.1
20260507080904 10 132 6.4 12.9 0.00 0.03 0.00 81 1017.0
20260507080405 10 137 4.8 12.9 0.00 0.03 0.00 82 1017.0
20260507075405 9 171 3.2 9.7 0.00 0.03 0.00 82 1016.9
20260507074905 9 149 4.8 11.3 0.00 0.03 0.00 83 1016.8
20260507074404 9 146 3.2 11.3 0.00 0.03 0.00 83 1016.8
20260507073904 9 142 3.2 8.0 0.00 0.03 0.00 83 1016.8
20260507073405 9 186 3.2 11.3 0.00 0.03 0.00 84 1016.8
20260507072905 8 119 3.2 11.3 0.00 0.03 0.00 85 1016.8
20260507072405 8 130 4.8 11.3 0.00 0.03 0.00 86 1016.7
20260507071905 8 145 1.6 4.8 0.00 0.03 0.00 86 1016.6